This is the latest recevied weather packets stored in our database for station/object KC1OEK-13. If no packets are shown the sender has not sent any weather packets the latest 10 day(s).
| Time | Temp. | Humidity | Pressure | Rain* | Wind** | Luminosity | Snow |
|---|---|---|---|---|---|---|---|
| 1777530177 | 8.33° C | 99% | 1010.6 hPa | 0 mm | - | 0 W/m² | - |
| 1777529875 | 8.33° C | 98% | 1010.5 hPa | 1.78 mm | - | 0 W/m² | - |
| 1777529570 | 8.33° C | 98% | 1010.3 hPa | 1.78 mm | - | 0 W/m² | - |
| 1777529269 | 8.33° C | 98% | 1010.2 hPa | 1.27 mm | - | 0 W/m² | - |
| 1777528964 | 8.33° C | 98% | 1010.2 hPa | 1.78 mm | - | 0 W/m² | - |
| 1777528659 | 8.33° C | 98% | 1010 hPa | 3.05 mm | - | 0 W/m² | - |
| 1777528358 | 8.89° C | 98% | 1010.2 hPa | 1.27 mm | - | 0 W/m² | - |
| 1777528056 | 8.33° C | 98% | 1010.3 hPa | 1.78 mm | - | 0 W/m² | - |
| 1777527752 | 8.89° C | 97% | 1010.5 hPa | 3.05 mm | - | 0 W/m² | - |
| 1777527448 | 8.89° C | 97% | 1010.9 hPa | 3.05 mm | - | 0 W/m² | - |
| 1777527142 | 8.89° C | 97% | 1011 hPa | 4.83 mm | - | 0 W/m² | - |
| 1777526839 | 8.89° C | 96% | 1011.3 hPa | 3.05 mm | - | 0 W/m² | - |
| 1777526534 | 8.89° C | 96% | 1011.5 hPa | 3.05 mm | - | 0 W/m² | - |
| 1777526229 | 8.89° C | 96% | 1011.7 hPa | 3.56 mm | - | 0 W/m² | - |
| 1777525925 | 8.89° C | 95% | 1011.6 hPa | 3.05 mm | - | 0 W/m² | - |
| 1777525623 | 8.89° C | 95% | 1011.5 hPa | 4.32 mm | - | 0 W/m² | - |
| 1777525320 | 8.89° C | 95% | 1011.9 hPa | 4.83 mm | - | 0 W/m² | - |
| 1777525015 | 8.89° C | 94% | 1011.9 hPa | 3.05 mm | - | 0 W/m² | - |
| 1777524713 | 8.89° C | 94% | 1011.8 hPa | 1.27 mm | - | 0 W/m² | - |
| 1777524411 | 9.44° C | 94% | 1011.7 hPa | 1.78 mm | - | 0 W/m² | - |
| 1777524106 | 9.44° C | 93% | 1011.8 hPa | 1.27 mm | - | 0 W/m² | - |
| 1777523803 | 9.44° C | 93% | 1011.9 hPa | 1.78 mm | - | 0 W/m² | - |
| 1777523500 | 9.44° C | 93% | 1011.8 hPa | 1.78 mm | - | 0 W/m² | - |
| 1777523196 | 9.44° C | 92% | 1011.9 hPa | 1.27 mm | - | 0 W/m² | - |
| 1777522892 | 9.44° C | 91% | 1012.1 hPa | 1.27 mm | - | 0 W/m² | - |
* Rain latest hour (hover to see other rain measurements)
** Current wind speed in m/s (hover to see current wind gust speed)